Satellite: NCUBE2
Catalog number: 28897
Epoch time:      07024.65661717
Element set:    0176
Inclination:      098.1465 deg
RA of node:       284.1552 deg
Eccentricity:    0.0016625
Arg of perigee:   199.9064 deg
Mean anomaly:     160.1496 deg
Mean motion:   14.59665793 rev/day
Decay rate:       1.53e-06 rev/day^2
Epoch rev:           05843
Checksum:              340

Satellite: NMARS
Catalog number: 29662
Epoch time:      07024.71763034
Element set:    0054
Inclination:      051.6494 deg
RA of node:       123.3725 deg
Eccentricity:    0.0012509
Arg of perigee:   144.0832 deg
Mean anomaly:     216.1013 deg
Mean motion:   15.86327531 rev/day
Decay rate:     5.2151e-04 rev/day^2
Epoch rev:           00539
Checksum:              262

Satellite: FCAL
Catalog number: 29664
Epoch time:      07025.69989666
Element set:      36
Inclination:      051.6383 deg
RA of node:       118.6658 deg
Eccentricity:    0.0016458
Arg of perigee:   144.2460 deg
Mean anomaly:     215.9665 deg
Mean motion:   15.83447222 rev/day
Decay rate:     1.7028e-04 rev/day^2
Epoch rev:             552
Checksum:              324

/EX





More information about the Keps mailing list